This demonstration page uses our WeatherBlox Daily Observations layout. Learn more.

Left ArrowRight Arrow

Hourly Observations for April 1, 2016

Temp ( °F °C ) Dew Point ( °F °C ) Humidity (%) Winds ( mph kmh ) Pressure ( in mb ) Visibility ( mi km ) Precip ( " mm )
12:15 am 00:15 Clear 36 2 25 -4 65 65 NW 17 28 29.97 1015 10 16 0.00 0.00
12:35 am 00:35 Clear 36 2 25 -4 65 65 NW 16 26 29.97 1015 10 16 0.00 0.00
12:55 am 00:55 Clear 36 2 25 -4 65 65 NW 17 28 29.97 1015 10 16 0.00 0.00
1:15 am 01:15 Clear 36 2 25 -4 65 65 NW 16 26 30.00 1016 10 16 0.00 0.00
1:35 am 01:35 Clear 36 2 25 -4 65 65 WNW 17 28 30.00 1016 10 16 0.00 0.00
1:55 am 01:55 Clear 36 2 25 -4 65 65 NW 14 22 30.00 1016 10 16 0.00 0.00
2:15 am 02:15 Clear 34 1 25 -4 70 70 NW 15 24 30.00 1016 10 16 0.00 0.00
2:35 am 02:35 Clear 34 1 25 -4 70 70 NW 14 22 30.00 1016 10 16 0.00 0.00
2:55 am 02:55 Clear 34 1 25 -4 70 70 NW 12 19 30.00 1016 10 16 0.00 0.00
3:15 am 03:15 Clear 32 0 25 -4 75 75 WNW 7 11 30.03 1017 10 16 0.00 0.00
3:35 am 03:35 Clear 30 -1 25 -4 80 80 WNW 8 13 30.03 1017 10 16 0.00 0.00
3:55 am 03:55 Clear 30 -1 25 -4 80 80 WNW 9 15 30.06 1018 10 16 0.00 0.00
4:15 am 04:15 Clear 30 -1 27 -3 86 86 WNW 10 17 30.06 1018 10 16 0.00 0.00
4:35 am 04:35 Clear 30 -1 27 -3 86 86 WNW 13 20 30.06 1018 10 16 0.00 0.00
4:55 am 04:55 Clear 30 -1 27 -3 86 86 WNW 13 20 30.06 1018 10 16 0.00 0.00
5:15 am 05:15 Clear 32 0 27 -3 80 80 WNW 12 19 30.06 1018 10 16 0.00 0.00
5:35 am 05:35 Clear 30 -1 25 -4 80 80 WNW 12 19 30.06 1018 10 16 0.00 0.00
5:55 am 05:55 Clear 30 -1 25 -4 80 80 NW 10 17 30.06 1018 10 16 0.00 0.00
6:15 am 06:15 Clear 30 -1 25 -4 80 80 WNW 8 13 30.06 1018 10 16 0.00 0.00
6:35 am 06:35 Clear 30 -1 25 -4 80 80 WNW 9 15 30.09 1019 10 16 0.00 0.00
6:55 am 06:55 Clear 30 -1 27 -3 86 86 WNW 10 17 30.09 1019 10 16 0.00 0.00
7:15 am 07:15 Clear 30 -1 25 -4 80 80 WNW 10 17 30.09 1019 10 16 0.00 0.00
7:35 am 07:35 Sunny 30 -1 25 -4 80 80 WNW 10 17 30.09 1019 10 16 0.00 0.00
7:55 am 07:55 Sunny 30 -1 27 -3 86 86 WNW 12 19 30.12 1020 10 16 0.00 0.00
8:15 am 08:15 Sunny 32 0 27 -3 80 80 WNW 13 20 30.12 1020 10 16 0.00 0.00
8:35 am 08:35 Sunny 34 1 27 -3 75 75 WNW 13 20 30.12 1020 10 16 0.00 0.00
8:55 am 08:55 Sunny 36 2 27 -3 70 70 NW 16 26 30.09 1019 10 16 0.00 0.00
9:15 am 09:15 Mostly Sunny 37 3 27 -3 65 65 WNW 17 28 30.09 1019 10 16 0.00 0.00
9:35 am 09:35 Sunny 37 3 27 -3 65 65 NW 16 26 30.09 1019 10 16 0.00 0.00
9:55 am 09:55 Partly Cloudy 39 4 25 -4 56 56 NNW 22 35 30.12 1020 10 16 0.00 0.00
10:15 am 10:15 Partly Cloudy 39 4 19 -7 45 45 NNW 22 35 30.12 1020 10 16 0.00 0.00
10:35 am 10:35 Partly Cloudy 39 4 19 -7 45 45 N 24 39 30.12 1020 10 16 0.00 0.00
10:55 am 10:55 Mostly Cloudy 39 4 18 -8 42 42 NNW 25 41 30.12 1020 10 16 0.00 0.00
11:15 am 11:15 Mostly Cloudy 41 5 16 -9 36 36 NNW 30 48 30.15 1021 10 16 0.00 0.00
11:35 am 11:35 Mostly Cloudy 43 6 16 -9 34 34 N 30 48 30.12 1020 10 16 0.00 0.00
11:55 am 11:55 Mostly Cloudy 41 5 16 -9 36 36 NNW 26 43 30.15 1021 10 16 0.00 0.00
12:15 pm 12:15 Cloudy 41 5 18 -8 39 39 NNW 25 41 30.15 1021 10 16 0.00 0.00
12:35 pm 12:35 Mostly Cloudy 41 5 16 -9 36 36 NNW 31 50 30.15 1021 10 16 0.00 0.00
12:55 pm 12:55 Partly Cloudy 43 6 16 -9 34 34 N 26 43 30.12 1020 10 16 0.00 0.00
1:15 pm 13:15 Partly Cloudy 43 6 14 -10 31 31 NW 25 41 30.12 1020 10 16 0.00 0.00
1:35 pm 13:35 Mostly Cloudy 43 6 14 -10 31 31 NNW 25 41 30.12 1020 10 16 0.00 0.00
1:55 pm 13:55 Cloudy 43 6 16 -9 34 34 NNW 25 41 30.12 1020 10 16 0.00 0.00
2:15 pm 14:15 Cloudy 43 6 14 -10 31 31 NNW 24 39 30.15 1021 10 16 0.00 0.00
2:35 pm 14:35 Cloudy 43 6 16 -9 34 34 NNW 22 35 30.15 1021 10 16 0.00 0.00
2:55 pm 14:55 Cloudy 43 6 16 -9 34 34 NNW 30 48 30.15 1021 10 16 0.00 0.00
3:15 pm 15:15 Mostly Cloudy 43 6 16 -9 34 34 NNW 21 33 30.15 1021 10 16 0.00 0.00
3:35 pm 15:35 Partly Cloudy 43 6 16 -9 34 34 NNW 17 28 30.15 1021 10 16 0.00 0.00
3:55 pm 15:55 Mostly Sunny 45 7 16 -9 31 31 NW 17 28 30.15 1021 10 16 0.00 0.00
4:15 pm 16:15 Mostly Sunny 45 7 16 -9 31 31 NNW 16 26 30.12 1020 10 16 0.00 0.00
4:35 pm 16:35 Sunny 45 7 16 -9 31 31 NNW 20 31 30.12 1020 10 16 0.00 0.00
4:55 pm 16:55 Sunny 45 7 16 -9 31 31 NNW 17 28 30.12 1020 10 16 0.00 0.00
5:15 pm 17:15 Sunny 45 7 14 -10 29 29 NNW 18 30 30.12 1020 10 16 0.00 0.00
5:35 pm 17:35 Sunny 45 7 12 -11 27 27 NNW 23 37 30.12 1020 10 16 0.00 0.00
5:55 pm 17:55 Sunny 45 7 14 -10 29 29 NNW 21 33 30.12 1020 10 16 0.00 0.00
6:15 pm 18:15 Sunny 45 7 14 -10 29 29 N 17 28 30.12 1020 10 16 0.00 0.00
6:35 pm 18:35 Sunny 45 7 12 -11 27 27 NNW 18 30 30.12 1020 10 16 0.00 0.00
6:55 pm 18:55 Sunny 43 6 14 -10 31 31 NNW 13 20 30.12 1020 10 16 0.00 0.00
7:15 pm 19:15 Sunny 43 6 14 -10 31 31 NNW 13 20 30.15 1021 10 16 0.00 0.00
7:35 pm 19:35 Sunny 43 6 14 -10 31 31 NNW 12 19 30.12 1020 10 16 0.00 0.00
7:55 pm 19:55 Sunny 41 5 14 -10 33 33 NW 8 13 30.18 1022 10 16 0.00 0.00
8:15 pm 20:15 Clear 39 4 14 -10 36 36 NW 6 9 30.15 1021 10 16 0.00 0.00
8:35 pm 20:35 Clear 37 3 14 -10 38 38 WNW 3 6 30.15 1021 10 16 0.00 0.00
8:55 pm 20:55 Clear 36 2 14 -10 41 41 WNW 6 9 30.18 1022 10 16 0.00 0.00
9:15 pm 21:15 Clear 37 3 14 -10 38 38 W 5 7 30.15 1021 10 16 0.00 0.00
9:35 pm 21:35 Clear 37 3 16 -9 41 41 WSW 6 9 30.18 1022 10 16 0.00 0.00
9:55 pm 21:55 Clear 37 3 16 -9 41 41 WSW 7 11 30.15 1021 10 16 0.00 0.00
10:15 pm 22:15 Clear 36 2 16 -9 44 44 WSW 7 11 30.18 1022 10 16 0.00 0.00
10:35 pm 22:35 Clear 36 2 16 -9 44 44 WSW 7 11 30.18 1022 10 16 0.00 0.00
10:55 pm 22:55 Clear 36 2 16 -9 44 44 WSW 7 11 30.18 1022 10 16 0.00 0.00
11:15 pm 23:15 Clear 34 1 16 -9 48 48 WSW 7 11 30.15 1021 10 16 0.00 0.00
11:35 pm 23:35 Clear 34 1 16 -9 48 48 SW 10 17 30.15 1021 10 16 0.00 0.00
11:55 pm 23:55 Clear 32 0 16 -9 51 51 WSW 8 13 30.15 1021 10 16 0.00 0.00

Powered by AerisWeather